Mount Holly, NJ

6:25 AM EST on December 16, 2019 (GMT -0500)
South Jersey Regional

Weather History for KVAY - October, 2019

Change the Weather History Date:

Thursday, October 31, 2019

  Actual Average (KPNE) Record (KPNE)
Temperature  
Mean Temperature 68 °F -  
Max Temperature 75 °F 58 °F 75 °F (2004)
Min Temperature 60 °F 39 °F 30 °F (2011)
Cooling Degree Days 2    
Growing Degree Days 18 (Base 50)    
Moisture  
Dew Point 65 °F    
Average Humidity 86    
Maximum Humidity 100    
Minimum Humidity 74    
Precipitation  
Precipitation 0.01 in - - ()
Sea Level Pressure  
Sea Level Pressure 29.82 in    
Wind  
Wind Speed 6 mph (South)    
Max Wind Speed 16 mph    
Max Gust Speed 28 mph    
Visibility 9 miles    
Events Rain    
Averages and records for this station are not official NWS values.
T = Trace of Precipitation, MM = Missing Value Source: NWS Daily Summary

Daily Weather History Graph

Daily Weather History Graph

Search for Another Location

Airport or City:

Astronomy

Oct. 31, 2019 Rise Set
Actual Time 7:26 AM EDT 5:58 PM EDT
Civil Twilight 6:58 AM EDT 6:26 PM EDT
Nautical Twilight 6:27 AM EDT 6:58 PM EDT
Astronomical Twilight 5:55 AM EDT 7:29 PM EDT
Moon 11:12 AM EDT (10/31) 8:52 PM EDT (10/31)
Length of Visible Light 11h 27m
Length of Day
10h 31m
Waxing Crescent, 15% of the Moon is Illuminated
Oct 31
Waxing Crescent
Nov 4
First Quarter
Nov 12
Full
Nov 19
Last Quarter
Nov 26
New

Hourly Weather History & Observations

Time (EDT) Temp. Dew Point Humidity Pressure Visibility Wind Dir Wind Speed Gust Speed Precip Events Conditions
12:54 AM 62.1 °F 61.0 °F 96% 30.09 in 8.0 mi Variable 3.5 mph - 0.00 in Rain Light Rain
1:54 AM 62.1 °F 60.1 °F 93% 30.06 in 7.0 mi SE 3.5 mph - 0.00 in Rain Light Rain
2:50 AM 60.8 °F 60.8 °F 100% 30.02 in 7.0 mi Variable 4.6 mph - 0.00 in   Overcast
2:54 AM 62.1 °F 60.1 °F 93% 30.02 in 9.0 mi Variable 3.5 mph - 0.00 in   Overcast
3:54 AM 61.0 °F 59.0 °F 93% 30.00 in 9.0 mi Variable 5.8 mph - N/A   Overcast
4:17 AM 62.1 °F 60.1 °F 93% 30.00 in 9.0 mi SSE 4.6 mph - N/A   Overcast
4:54 AM 63.0 °F 61.0 °F 93% 29.99 in 7.0 mi Variable 4.6 mph - 0.00 in Rain Light Rain
5:54 AM 64.0 °F 62.1 °F 93% 29.97 in 8.0 mi SSE 4.6 mph - 0.00 in Rain Light Rain
6:38 AM 64.9 °F 64.0 °F 97% 29.95 in 10.0 mi Variable 3.5 mph - 0.00 in   Overcast
6:50 AM 66.2 °F 64.4 °F 94% 29.95 in 10.0 mi Variable 4.6 mph - 0.00 in Rain Light Rain
6:54 AM 66.0 °F 64.0 °F 93% 29.95 in 9.0 mi South 4.6 mph - 0.00 in Rain Light Rain
7:54 AM 68.0 °F 66.0 °F 93% 29.94 in 10.0 mi Variable 5.8 mph - 0.01 in   Overcast
8:02 AM 68.0 °F 66.0 °F 93% 29.94 in 4.0 mi Variable 4.6 mph - 0.00 in Rain Light Rain
8:13 AM 68.0 °F 66.0 °F 93% 29.94 in 10.0 mi Variable 4.6 mph - 0.00 in Rain Light Rain
8:52 AM 69.8 °F 66.2 °F 88% 29.93 in 10.0 mi Variable 4.6 mph - 0.00 in   Overcast
8:54 AM 69.1 °F 66.9 °F 93% 29.94 in 10.0 mi Variable 5.8 mph - 0.00 in   Overcast
9:06 AM 69.1 °F 66.9 °F 93% 29.94 in 10.0 mi Variable 5.8 mph - N/A   Overcast
9:54 AM 71.1 °F 66.9 °F 87% 29.92 in 7.0 mi South 9.2 mph - N/A   Overcast
10:40 AM 71.1 °F 68.0 °F 90% 29.91 in 10.0 mi Variable 4.6 mph - 0.00 in   Overcast
10:54 AM 71.1 °F 68.0 °F 90% 29.90 in 10.0 mi South 8.1 mph 19.6 mph 0.00 in   Overcast
11:54 AM 73.0 °F 68.0 °F 84% 29.88 in 10.0 mi South 9.2 mph 19.6 mph N/A   Overcast
12:54 PM 73.0 °F 68.0 °F 84% 29.84 in 10.0 mi South 10.4 mph 20.7 mph N/A   Overcast
1:54 PM 75.0 °F 66.9 °F 76% 29.80 in 10.0 mi South 9.2 mph 21.9 mph N/A   Overcast
2:13 PM 75.9 °F 66.9 °F 74% 29.78 in 10.0 mi South 12.7 mph 24.2 mph N/A   Overcast
2:54 PM 75.9 °F 66.9 °F 74% 29.76 in 10.0 mi South 10.4 mph 21.9 mph N/A   Scattered Clouds
3:16 PM 75.0 °F 66.9 °F 76% 29.75 in 10.0 mi South 9.2 mph 18.4 mph N/A   Mostly Cloudy
3:54 PM 73.9 °F 66.9 °F 79% 29.73 in 10.0 mi SSE 6.9 mph 19.6 mph N/A   Mostly Cloudy
4:09 PM 73.9 °F 66.9 °F 79% 29.73 in 10.0 mi SSE 11.5 mph 20.7 mph N/A   Mostly Cloudy
4:33 PM 73.9 °F 68.0 °F 82% 29.72 in 10.0 mi SSE 8.1 mph 19.6 mph N/A   Mostly Cloudy
4:54 PM 73.0 °F 66.9 °F 81% 29.71 in 10.0 mi SSE 11.5 mph 21.9 mph N/A   Mostly Cloudy
5:02 PM 73.0 °F 66.9 °F 81% 29.71 in 10.0 mi South 9.2 mph 21.9 mph N/A   Scattered Clouds
5:33 PM 73.0 °F 66.9 °F 81% 29.71 in 10.0 mi South 10.4 mph 23.0 mph N/A   Mostly Cloudy
5:54 PM 73.0 °F 66.9 °F 81% 29.70 in 10.0 mi South 9.2 mph 19.6 mph N/A   Mostly Cloudy
6:54 PM 72.0 °F 66.9 °F 84% 29.68 in 10.0 mi South 11.5 mph 20.7 mph 0.00 in   Mostly Cloudy
7:33 PM 72.0 °F 66.9 °F 84% 29.65 in 10.0 mi South 10.4 mph 23.0 mph N/A   Scattered Clouds
7:54 PM 72.0 °F 66.9 °F 84% 29.64 in 10.0 mi South 10.4 mph 25.3 mph N/A   Partly Cloudy
8:54 PM 72.0 °F 66.0 °F 81% 29.60 in 10.0 mi South 8.1 mph 24.2 mph N/A   Partly Cloudy
9:54 PM 73.9 °F 66.0 °F 76% 29.57 in 10.0 mi South 16.1 mph 26.5 mph N/A   Partly Cloudy
10:54 PM 73.9 °F 66.0 °F 76% 29.55 in 10.0 mi South 12.7 mph 27.6 mph N/A   Scattered Clouds
11:11 PM 73.9 °F 66.0 °F 76% 29.55 in 10.0 mi South 12.7 mph 26.5 mph N/A   Mostly Cloudy
11:38 PM 73.0 °F 66.9 °F 81% 29.54 in 7.0 mi South 8.1 mph 26.5 mph 0.00 in Rain Light Rain
11:54 PM 72.0 °F 66.9 °F 84% 29.55 in 8.0 mi South 10.4 mph 25.3 mph 0.00 in Rain Light Rain